Temperature
21 21 20 20 20 20 19 19 19 19 19 19 19 18 18 18 18 18 18 18 17 17 17 17 17 17 17 16 16 16 16 16 16 16 16 15 15 15 15 14 14 14 14
21 21 21 20 20 20 19 19 19 19 19 19 19 19 18 18 18 18 18 18 18 17 17 17 17 17 17 17 16 16 16 16 16 16 16 15 15 15 14 14 14 14 14
21 21 21 20 20 20 19 19 19 19 19 19 18 18 18 18 18 18 18 18 17 17 17 17 17 17 17 16 16 16 16 16 16 15 15 15 14 14 14 14 14 14 13
21 21 21 20 20 20 20 19 19 19 19 19 18 18 18 18 18 18 18 18 17 17 17 17 17 17 16 16 16 16 16 16 15 15 15 15 14 14 14 14 13 13 13
21 21 21 20 20 20 19 19 19 19 19 19 18 18 18 18 18 18 17 17 17 17 17 17 17 16 16 16 16 16 16 15 15 15 15 15 14 14 14 14 13 13 13
21 21 21 20 20 20 19 19 19 19 18 18 18 18 18 18 18 17 17 17 17 17 17 17 16 16 16 16 16 16 15 15 15 15 15 14 14 14 14 13 13 12 12
20 20 20 20 20 20 19 19 19 19 18 18 18 18 18 18 18 17 17 17 17 17 17 17 16 16 16 16 16 15 15 15 15 15 14 14 14 14 14 13 13 13 13
20 20 20 20 20 19 19 19 19 18 18 18 18 18 17 17 17 17 17 17 17 17 17 17 16 16 16 16 15 15 15 15 15 14 14 14 14 14 13 13 13 12 12
20 19 19 19 19 19 19 19 18 18 18 18 18 17 17 17 17 17 16 16 16 16 16 16 16 16 16 15 15 15 15 15 15 14 14 14 14 13 13 13 12 12 12
19 19 19 19 18 18 18 18 18 18 17 17 17 17 17 17 17 16 16 16 16 16 16 16 16 16 16 15 15 15 15 15 14 14 14 14 14 13 13 13 12 12 12
19 18 18 18 18 18 18 17 17 17 17 17 17 17 16 16 16 16 16 16 16 16 16 16 16 16 15 15 15 15 14 14 14 14 14 13 13 13 13 13 12 12 12
18 18 18 18 17 17 17 17 17 17 17 17 16 16 16 16 16 16 16 16 16 16 16 16 15 15 15 15 14 14 14 14 13 13 13 13 13 13 13 13 12 12 12
18 17 17 17 17 17 17 16 16 16 16 16 16 16 16 16 16 16 16 16 15 15 15 15 15 15 14 14 14 14 14 13 13 13 13 13 13 13 12 12 12 12 12
17 17 17 16 16 16 16 16 16 16 16 16 16 16 16 16 16 16 16 15 15 15 15 14 14 14 14 14 14 14 13 13 13 13 13 13 13 12 12 12 12 12 11
16 16 16 16 16 16 16 15 15 15 15 15 15 15 15 15 15 15 15 15 15 15 14 14 14 14 14 14 13 13 13 13 12 12 12 12 12 12 12 12 11 11 11
16 16 15 15 15 15 15 15 15 15 15 15 15 15 15 15 15 15 14 14 14 14 14 13 13 13 13 13 13 13 13 13 13 12 12 12 11 11 11 11 11 11 11
15 15 15 15 15 15 15 14 14 14 14 14 14 14 14 14 14 14 14 14 13 13 13 13 13 13 13 13 12 12 12 12 12 12 12 11 11 11 11 11 11 10 10
14 14 14 14 14 14 14 14 14 14 14 14 14 14 14 13 13 13 13 13 13 13 12 12 12 12 12 12 12 12 12 12 11 11 11 11 11 11 10 10 10 10 10
14 14 14 14 14 14 14 14 13 13 13 13 13 13 13 13 13 13 12 12 12 12 12 12 12 12 12 12 12 12 12 11 11 11 11 11 10 10 10 10 10 10 10
13 13 13 13 13 13 13 13 13 13 13 13 13 13 13 12 12 12 12 12 12 12 12 12 12 12 12 11 11 11 11 11 11 11 11 10 10 10 10 10 10 9 9
13 13 13 12 12 12 12 12 12 12 12 12 12 12 12 12 12 12 12 12 12 12 12 12 12 12 11 11 11 11 11 11 11 10 10 10 10 10 10 9 9 9 9
12 12 12 12 12 12 12 12 12 12 12 12 12 12 12 11 11 11 11 11 11 11 11 11 11 11 11 11 11 10 10 10 10 10 10 10 9 9 9 9 9 9 9
12 12 12 12 12 12 12 12 12 11 11 11 11 11 11 11 11 11 11 11 11 11 11 11 11 10 10 10 10 10 10 10 10 9 9 9 9 9 9 9 9 9 8
11 11 11 11 11 11 11 11 11 11 11 11 11 11 11 11 11 11 11 11 11 11 10 10 10 10 10 10 10 10 10 10 9 9 9 9 9 9 9 9 8 8 8
11 11 11 11 11 11 11 11 11 11 10 10 10 10 10 10 10 10 10 10 10 10 10 10 10 10 10 10 10 10 9 9 9 9 9 9 9 9 8 8 8 8 8
10 10 10 10 10 10 10 10 10 10 10 10 10 10 10 10 10 10 10 10 10 10 10 10 10 9 9 9 9 9 9 9 9 8 8 8 8 8 8 8 8 8 7
Wind_Speed
9 8 8 7 6 5 5 6 5 5 5 5 5 5 5 4 4 4 4 4 4 3 3 4 4 3 2 3 3 3 3 3 3 3 2 2 2 3 4 5 6 6 7
9 8 7 6 6 6 6 5 5 5 5 5 4 5 5 5 4 5 5 5 5 5 4 4 4 3 3 3 3 3 3 3 3 3 2 1 2 4 4 4 4 4 5
8 8 6 6 6 6 6 5 5 5 5 5 5 5 5 5 5 5 5 5 5 5 5 5 4 4 4 3 3 3 3 3 3 3 3 2 1 2 2 2 3 3 5
8 8 8 8 7 7 6 6 5 5 5 5 5 6 6 5 5 5 5 5 5 4 4 4 4 5 5 4 4 4 3 3 3 3 3 2 2 1 2 2 2 3 3
9 9 9 8 7 6 6 6 5 5 6 5 5 5 5 5 5 6 5 5 5 4 3 3 4 5 5 5 4 4 5 3 3 3 3 2 2 3 4 3 4 3 3
8 8 7 7 7 7 6 6 6 5 5 5 4 4 4 4 5 7 6 5 4 4 4 3 3 4 5 5 6 7 7 6 6 5 4 5 5 5 4 4 3 2 3
7 7 6 7 7 7 6 5 6 6 5 5 5 5 5 6 7 8 9 6 5 6 6 5 4 4 4 3 5 6 6 8 9 7 7 7 7 7 6 5 5 5 5
6 6 6 6 6 6 6 6 6 5 5 5 5 6 6 7 8 8 9 6 6 6 6 6 6 5 5 5 4 3 4 5 7 7 8 8 7 7 7 7 7 5 3
5 5 5 5 6 6 7 7 5 5 5 5 4 5 6 6 8 8 7 4 5 5 5 5 6 6 7 7 5 5 4 5 6 8 9 8 9 10 8 4 3 3 3
3 4 4 4 5 6 6 5 4 4 5 4 4 5 5 5 6 7 7 4 4 4 4 4 7 8 8 9 7 6 7 6 4 3 4 5 6 7 10 8 7 5 3
2 2 2 3 4 4 4 4 3 4 4 4 4 4 4 5 6 7 7 5 5 4 4 4 5 8 9 9 9 7 9 6 4 4 4 4 3 4 5 6 7 6 5
1 1 1 2 3 3 3 3 3 3 3 3 3 3 3 4 5 6 7 7 6 5 6 5 5 8 8 9 8 8 7 5 3 3 4 4 5 5 5 6 7 8 8
2 1 2 2 2 2 3 4 3 3 3 3 3 4 4 3 4 5 7 8 8 6 5 6 6 7 7 7 9 8 6 4 4 4 6 6 6 6 4 3 4 5 5
1 1 2 2 2 1 1 2 2 3 3 3 3 4 4 3 3 3 4 5 5 5 4 4 5 5 6 6 5 5 5 6 6 6 6 5 4 3 4 4 4 3 3
1 1 1 1 1 1 1 1 2 3 4 5 4 4 4 5 6 6 5 4 5 5 3 2 1 2 3 3 3 3 4 4 5 5 5 4 4 4 4 4 4 4 4
0 1 1 1 1 1 1 1 2 2 2 4 6 5 5 6 6 6 7 7 7 6 4 3 4 4 5 5 5 5 4 5 6 5 5 5 5 5 5 4 4 5 6
1 1 1 1 1 2 2 2 2 3 3 3 4 5 6 5 5 5 5 5 5 6 4 4 5 5 5 5 5 6 6 6 5 5 5 5 5 5 5 5 5 5 6
1 1 1 2 2 2 2 2 2 2 2 3 4 5 5 5 4 4 4 3 1 3 4 5 5 5 5 5 5 5 5 5 5 5 5 5 5 5 5 5 6 6 6
1 1 1 2 2 2 2 2 2 2 2 3 3 3 4 4 4 3 3 2 3 4 5 5 5 5 5 5 5 5 5 5 5 5 5 6 6 6 6 6 6 8 7
1 2 2 1 2 2 1 1 2 2 2 2 3 3 1 1 1 2 2 3 4 4 5 5 5 5 5 5 5 5 4 4 4 5 5 5 5 5 6 7 6 6 6
2 2 2 1 1 2 2 2 2 2 2 3 4 3 3 3 3 3 3 3 4 5 5 4 4 4 4 4 4 4 4 4 5 5 5 5 5 5 5 5 6 6 5
2 2 1 2 2 2 2 2 2 2 2 3 3 2 3 2 2 2 2 3 3 3 3 3 3 3 4 4 4 4 4 5 5 5 5 5 5 5 5 5 5 5 5
2 2 2 2 2 2 2 2 2 2 3 3 2 2 1 2 2 2 2 3 2 2 2 2 3 3 4 4 4 4 5 6 6 5 5 6 6 6 5 6 6 6 6
2 2 2 3 2 2 2 2 2 2 3 3 2 2 2 2 2 2 3 2 2 2 2 2 3 4 5 4 4 4 4 5 5 5 6 6 6 5 5 5 6 6 6
3 3 2 2 2 2 2 2 2 2 2 2 2 2 2 2 2 3 3 2 2 2 3 2 3 4 5 5 4 4 4 4 4 4 4 5 6 6 5 6 5 5 6
3 3 3 2 2 2 2 3 3 2 2 2 2 2 2 3 3 3 2 2 2 2 2 2 3 3 3 3 4 4 3 3 3 4 3 3 4 4 4 4 5 5 5
Wind_Direction
188 191 192 196 196 188 189 194 194 194 188 187 191 193 199 207 208 201 211 207 205 217 216 205 215 201 198 196 186 186 185 168 201 239 217 183 172 181 178 189 198 201 208
190 189 191 191 189 190 197 203 197 194 196 195 191 193 202 208 209 207 216 215 209 214 217 208 217 208 205 203 194 197 197 183 182 214 226 189 198 191 185 192 199 215 220
187 188 190 189 189 193 196 194 189 188 192 194 191 199 207 210 211 214 213 212 209 213 212 210 216 197 209 210 200 198 204 197 182 184 209 210 203 183 173 213 216 217 227
181 185 191 197 195 193 191 191 192 191 194 200 205 208 210 213 213 213 206 204 205 209 208 208 206 198 201 197 197 192 184 175 171 173 188 196 193 194 167 201 232 235 237
181 187 196 197 192 189 190 193 196 198 200 199 203 211 212 211 212 203 201 200 200 206 208 207 207 203 199 195 195 188 177 179 177 183 196 203 205 191 207 204 222 239 251
178 191 195 191 189 192 194 192 192 201 201 191 197 204 214 225 214 199 194 198 196 195 205 216 213 205 206 203 202 196 185 186 192 198 210 215 221 214 208 205 206 211 251
181 190 189 188 189 193 193 189 197 205 202 201 206 211 220 229 214 203 199 197 202 206 206 209 220 217 203 201 205 203 207 205 197 196 209 220 215 209 197 207 209 212 230
181 189 192 190 198 200 192 199 206 204 205 211 214 220 225 234 221 214 207 205 210 215 213 209 210 217 214 194 197 212 228 229 221 214 216 222 220 209 200 205 211 222 248
175 186 191 193 196 201 204 209 207 200 207 213 215 217 227 237 224 217 206 207 214 221 221 215 209 215 217 195 192 211 235 252 249 230 221 219 217 211 198 186 194 201 244
180 191 188 188 196 208 211 209 204 200 209 213 222 223 223 227 222 215 205 204 208 221 229 228 220 214 215 201 199 206 225 242 241 247 242 237 227 220 204 197 198 206 223
178 162 173 195 206 209 208 206 202 202 205 211 221 231 226 225 224 220 209 204 207 211 222 231 232 214 214 212 207 212 223 223 221 223 237 240 237 229 219 210 204 203 211
165 180 215 231 229 221 212 214 206 199 207 220 228 246 252 241 232 229 220 213 207 207 222 227 229 220 218 216 215 222 220 210 210 219 233 237 236 235 233 222 219 220 221
177 229 251 255 252 231 214 214 212 206 211 225 230 243 257 256 245 234 222 216 210 212 224 223 226 227 224 225 226 222 212 207 211 228 236 240 236 231 220 217 224 227 236
181 234 253 243 257 263 227 205 210 220 222 228 230 241 252 255 250 238 228 224 224 225 233 233 229 226 219 225 229 224 214 212 214 228 235 239 231 222 218 215 220 215 226
186 223 243 215 214 222 205 207 216 231 221 217 228 228 235 253 251 229 213 217 216 218 204 204 213 216 227 237 238 235 224 218 226 234 233 235 233 232 234 221 211 209 219
208 242 218 211 210 204 197 297 310 255 259 238 227 228 244 242 245 235 221 215 211 191 167 202 223 227 231 234 234 236 230 228 231 230 228 226 227 229 235 227 212 215 225
255 268 264 245 226 218 214 211 261 303 305 282 263 258 256 256 246 237 220 213 206 172 184 220 225 227 229 231 233 233 236 236 228 226 229 229 227 227 227 228 222 222 229
298 274 267 253 248 246 235 231 227 239 282 297 292 261 252 249 243 233 203 161 185 197 222 230 232 231 230 234 238 239 237 232 227 227 230 231 229 230 232 232 226 224 229
316 304 300 290 276 268 257 248 246 244 248 269 289 284 259 253 257 249 183 190 218 231 232 236 236 235 237 238 239 235 229 226 224 223 229 232 235 233 235 235 232 229 227
312 331 334 320 311 302 287 270 265 259 255 254 257 257 237 152 239 248 217 226 232 238 239 239 237 235 235 235 232 230 229 230 230 231 236 237 237 236 239 238 234 233 232
322 318 332 327 289 276 277 270 261 263 267 264 261 252 212 206 224 230 231 233 237 243 244 243 240 239 237 233 228 226 227 234 233 234 235 239 238 236 237 237 236 234 236
326 315 315 316 310 308 299 287 278 276 282 284 285 284 225 221 239 243 248 250 245 245 245 241 244 242 238 234 228 228 235 241 241 238 238 238 235 236 236 235 235 232 231
337 331 329 326 319 311 305 298 292 296 298 293 289 281 235 238 249 246 253 262 261 255 255 245 246 256 252 249 238 227 230 238 239 236 237 240 239 237 233 233 234 234 236
343 336 330 323 320 314 304 298 289 282 285 294 297 282 261 250 253 260 262 265 261 260 261 256 253 254 255 257 254 246 250 251 246 242 233 232 237 238 235 233 234 236 237
352 343 335 326 320 315 315 314 306 297 294 298 295 287 279 271 265 269 265 251 250 254 261 264 269 272 272 267 259 258 263 261 260 258 245 233 232 232 230 232 235 239 238
350 349 339 337 339 327 319 314 316 318 313 307 299 291 288 283 275 268 262 254 257 259 263 275 282 280 288 279 271 272 267 270 271 270 261 236 230 232 227 231 237 237 235
Height
1523 1525 1526 1528 1529 1531 1532 1533 1534 1534 1535 1536 1536 1537 1537 1538 1538 1538 1538 1539 1539 1539 1540 1540 1540 1540 1540 1540 1541 1542 1542 1543 1542 1542 1543 1543 1543 1544 1544 1544 1544 1543 1543
1521 1523 1525 1526 1527 1528 1529 1530 1531 1532 1532 1533 1534 1534 1534 1535 1535 1536 1536 1536 1536 1536 1537 1537 1537 1537 1537 1538 1538 1538 1539 1540 1540 1539 1539 1540 1540 1541 1541 1541 1541 1540 1540
1519 1520 1522 1523 1525 1525 1526 1527 1528 1529 1530 1530 1531 1531 1532 1532 1532 1532 1533 1533 1533 1534 1534 1534 1534 1535 1534 1535 1535 1535 1536 1536 1537 1536 1536 1536 1537 1537 1537 1537 1537 1537 1537
1516 1517 1519 1520 1521 1523 1524 1525 1525 1526 1526 1527 1528 1528 1528 1529 1529 1529 1529 1530 1530 1531 1531 1531 1531 1531 1531 1532 1532 1532 1533 1533 1533 1533 1532 1532 1533 1533 1533 1533 1532 1533 1533
1513 1514 1515 1517 1519 1520 1521 1522 1523 1523 1523 1524 1524 1525 1525 1525 1526 1526 1526 1526 1527 1527 1528 1528 1528 1528 1529 1529 1529 1529 1529 1530 1529 1529 1529 1529 1529 1529 1529 1529 1529 1529 1529
1510 1512 1513 1515 1516 1517 1518 1519 1519 1520 1520 1520 1521 1521 1522 1522 1522 1523 1523 1523 1523 1524 1524 1524 1525 1525 1525 1525 1525 1526 1526 1526 1525 1525 1525 1525 1525 1525 1525 1525 1525 1525 1525
1507 1509 1510 1511 1512 1513 1514 1515 1516 1516 1516 1516 1517 1518 1518 1518 1519 1519 1519 1520 1519 1520 1520 1520 1520 1520 1521 1521 1521 1521 1522 1522 1522 1522 1521 1520 1521 1521 1522 1522 1521 1521 1521
1504 1505 1506 1507 1508 1509 1510 1511 1511 1512 1512 1513 1513 1514 1514 1514 1514 1514 1514 1514 1515 1515 1516 1516 1516 1516 1516 1517 1517 1517 1517 1517 1517 1517 1517 1517 1517 1518 1518 1518 1518 1518 1518
1501 1502 1503 1504 1504 1505 1506 1507 1507 1508 1508 1509 1509 1509 1509 1509 1510 1509 1510 1510 1510 1510 1511 1512 1512 1512 1512 1513 1513 1513 1513 1513 1513 1513 1513 1513 1513 1513 1514 1514 1514 1514 1513
1498 1499 1499 1500 1501 1501 1502 1503 1503 1504 1504 1505 1505 1505 1504 1504 1505 1505 1505 1504 1504 1505 1506 1507 1507 1507 1507 1508 1508 1508 1508 1508 1508 1508 1508 1508 1508 1508 1509 1509 1509 1509 1508
1496 1496 1496 1496 1497 1498 1498 1499 1500 1500 1500 1500 1500 1500 1500 1500 1500 1500 1500 1499 1499 1500 1500 1501 1502 1502 1503 1503 1503 1503 1503 1503 1503 1503 1503 1503 1503 1503 1503 1503 1504 1504 1504
1493 1493 1493 1493 1494 1494 1495 1495 1495 1495 1495 1495 1495 1495 1495 1495 1495 1495 1495 1495 1495 1495 1495 1496 1496 1497 1498 1498 1498 1498 1498 1498 1498 1497 1497 1497 1497 1497 1498 1498 1498 1499 1499
1491 1490 1490 1490 1491 1491 1491 1491 1491 1491 1491 1491 1491 1490 1490 1490 1490 1490 1490 1490 1490 1491 1491 1491 1491 1492 1493 1493 1493 1493 1493 1493 1492 1492 1491 1492 1492 1493 1493 1493 1493 1493 1493
1488 1488 1487 1487 1487 1487 1487 1487 1487 1487 1487 1487 1486 1486 1486 1485 1485 1485 1485 1485 1485 1485 1486 1486 1486 1486 1487 1487 1487 1487 1487 1487 1487 1486 1486 1487 1487 1487 1487 1487 1488 1488 1487
1486 1485 1485 1484 1484 1484 1484 1484 1483 1483 1483 1483 1483 1482 1481 1480 1480 1481 1480 1480 1480 1480 1480 1480 1480 1481 1481 1481 1481 1481 1482 1481 1481 1481 1481 1481 1481 1481 1481 1482 1482 1482 1482
1483 1482 1482 1482 1481 1481 1480 1480 1480 1479 1479 1479 1479 1478 1477 1477 1476 1476 1475 1475 1475 1475 1475 1474 1474 1475 1475 1475 1475 1475 1475 1475 1475 1475 1475 1476 1476 1476 1476 1476 1476 1477 1476
1481 1480 1480 1479 1478 1477 1477 1476 1475 1475 1475 1475 1474 1474 1473 1472 1471 1471 1470 1470 1470 1470 1470 1469 1469 1469 1469 1469 1470 1470 1470 1470 1470 1470 1470 1470 1470 1470 1470 1471 1471 1471 1471
1479 1478 1477 1476 1476 1475 1474 1474 1473 1472 1471 1470 1470 1470 1469 1468 1467 1466 1466 1465 1465 1465 1465 1465 1465 1465 1465 1465 1465 1465 1464 1464 1464 1464 1464 1464 1464 1464 1464 1465 1465 1465 1465
1476 1475 1474 1474 1473 1472 1472 1471 1470 1469 1468 1467 1466 1465 1464 1464 1463 1463 1462 1461 1460 1461 1461 1460 1460 1460 1460 1460 1460 1459 1459 1459 1458 1458 1458 1458 1458 1458 1458 1459 1459 1459 1459
1473 1472 1471 1471 1470 1469 1468 1467 1467 1466 1464 1463 1462 1461 1461 1460 1459 1458 1458 1457 1457 1456 1456 1456 1456 1456 1455 1455 1455 1454 1453 1453 1453 1452 1452 1452 1453 1453 1453 1453 1453 1453 1453
1471 1469 1468 1467 1466 1466 1465 1464 1463 1462 1461 1460 1459 1458 1457 1457 1456 1455 1455 1454 1453 1453 1453 1452 1452 1451 1451 1450 1450 1449 1448 1448 1447 1447 1447 1447 1447 1447 1447 1447 1447 1447 1447
1469 1467 1466 1465 1464 1463 1462 1461 1461 1459 1458 1456 1455 1455 1454 1454 1453 1452 1452 1451 1451 1450 1450 1449 1448 1447 1447 1446 1445 1444 1443 1442 1442 1442 1442 1442 1442 1442 1442 1442 1441 1441 1442
1468 1466 1465 1464 1463 1462 1460 1459 1458 1457 1456 1454 1453 1452 1451 1451 1450 1450 1449 1449 1448 1447 1447 1446 1445 1444 1443 1442 1441 1440 1438 1437 1437 1437 1437 1436 1436 1436 1436 1435 1435 1435 1435
1467 1465 1464 1462 1461 1460 1458 1457 1456 1455 1454 1452 1451 1450 1449 1448 1448 1447 1447 1446 1445 1444 1443 1442 1441 1440 1439 1438 1436 1435 1434 1433 1433 1432 1431 1431 1430 1430 1430 1429 1429 1429 1430
1465 1464 1462 1461 1459 1458 1456 1455 1454 1452 1451 1450 1449 1448 1447 1446 1445 1445 1444 1443 1442 1441 1440 1438 1437 1436 1435 1433 1432 1431 1429 1428 1428 1427 1426 1425 1424 1424 1423 1423 1423 1423 1423
1464 1462 1461 1459 1458 1456 1454 1453 1451 1450 1449 1448 1447 1446 1445 1444 1443 1442 1441 1440 1438 1437 1436 1434 1433 1431 1430 1428 1427 1426 1424 1423 1422 1421 1420 1419 1418 1418 1417 1417 1417 1417 1417